Cloud_Cover
0 8 8 12 8 0 8 8 8 12 32 8 0 0 8 8 8 8 0 8 12 44 92 92 76 48 24 8 0 0 0 0 0 0 0 12 20 20 8 0 0 0 0 0 0 0 0 0 0 8 20 68 88 80 44 12 8 0 0 0 0 0 8 8 8 8 8 0 0 0 0 0 8 8 12 20 24 24 24 24 32 24 24 24 36 48 36 20 24 32 44 32 24 20 12 20 20 20 24 36 48 44 12
8 8 8 12 12 8 12 8 8 0 8 0 0 0 0 0 20 32 8 0 0 12 44 64 56 36 12 0 0 0 0 0 0 0 0 0 0 0 0 0 0 0 0 0 0 0 0 0 0 12 56 88 76 44 12 8 8 8 8 8 8 8 8 8 8 8 8 8 8 8 8 8 12 12 12 20 24 24 24 24 32 32 32 68 88 76 32 20 20 32 44 36 24 20 20 32 44 56 56 56 68 76 32
0 8 8 8 8 12 12 12 8 8 8 0 0 0 0 0 24 48 32 8 0 0 8 20 36 36 0 0 0 0 0 0 0 0 0 0 0 0 0 0 0 0 0 0 0 0 0 0 0 8 12 20 20 12 8 8 12 24 36 68 56 32 12 8 8 8 12 12 12 12 12 20 20 12 12 20 20 24 24 24 32 32 32 44 48 48 44 20 24 36 36 36 36 36 36 76 88 88 80 68 68 64 44
0 8 8 8 8 8 12 12 12 12 8 8 0 0 0 0 8 12 12 20 12 0 0 24 44 36 0 0 0 0 0 0 0 0 0 0 0 0 0 0 0 0 0 0 0 0 0 0 0 8 8 8 8 8 8 12 24 48 88 92 68 32 20 12 12 12 12 12 12 20 20 20 20 20 20 12 20 20 24 24 32 32 20 68 64 36 48 20 24 44 36 36 44 56 56 88 92 92 92 88 76 68 64
20 8 8 8 8 8 8 8 12 12 12 12 12 8 8 8 8 12 12 20 12 8 0 8 12 8 0 0 0 0 0 0 0 0 0 0 44 64 0 0 0 0 0 0 8 8 8 8 8 20 56 36 20 12 12 24 44 56 36 56 44 20 20 20 20 12 12 12 20 20 20 20 20 20 20 24 24 20 24 32 36 32 24 80 76 56 48 24 32 36 36 36 48 64 64 64 76 88 92 92 80 76 88
20 12 12 8 8 8 8 8 8 8 8 8 12 12 12 12 20 20 20 20 12 12 20 32 32 20 0 0 0 0 0 0 0 0 0 0 44 76 0 0 0 0 8 8 8 8 8 8 12 24 76 80 48 12 12 20 32 36 12 20 12 12 12 20 12 12 20 20 20 20 20 20 12 12 24 44 36 24 24 32 32 24 24 80 80 64 56 32 36 44 36 36 32 32 44 44 56 76 92 76 68 76 76
8 8 8 8 8 8 8 8 8 8 8 8 8 8 8 12 12 8 12 12 12 12 20 24 36 44 20 12 12 8 0 0 0 0 0 0 8 8 0 0 8 8 8 12 12 12 12 12 12 36 92 92 56 20 12 8 8 8 8 8 12 20 24 24 24 24 24 24 20 20 20 20 12 12 8 20 24 32 32 36 36 36 32 80 92 92 76 32 32 48 44 32 24 32 44 36 36 44 76 68 64 56 24
24 32 12 12 8 8 8 8 8 8 8 8 8 8 8 8 8 8 8 8 12 12 8 12 20 24 24 24 32 24 8 0 0 0 0 8 8 8 8 12 12 12 12 12 12 12 12 12 12 20 24 48 36 12 12 12 12 12 12 12 24 36 32 32 32 24 24 24 24 24 20 20 12 12 12 12 24 32 32 36 36 32 20 76 92 76 24 20 24 36 44 32 24 24 24 36 32 32 44 44 36 36 36
92 80 24 20 20 12 12 8 12 12 8 8 8 8 8 8 8 8 8 8 8 8 8 8 20 24 24 32 44 36 12 8 8 8 12 12 12 12 12 20 20 12 12 12 8 12 12 12 12 12 24 36 32 20 20 24 24 24 32 32 32 32 24 24 24 24 32 24 24 24 24 24 20 20 12 12 20 24 24 36 32 12 12 76 92 88 64 32 32 36 36 24 24 24 32 32 24 24 32 32 32 36 44
68 80 56 64 56 48 48 24 20 12 8 8 8 0 8 8 8 8 8 8 8 8 8 12 32 44 44 32 36 36 8 8 8 8 8 8 8 12 12 12 12 12 8 8 8 8 8 12 12 12 12 36 32 20 20 20 24 24 32 32 32 36 36 36 36 32 32 32 32 24 24 20 20 20 12 12 12 20 32 36 36 24 20 76 80 56 24 12 24 44 44 32 24 24 24 36 24 20 48 36 36 44 48
32 24 20 36 68 92 92 64 56 44 20 12 8 8 8 8 8 12 12 12 12 12 8 12 24 44 44 24 32 32 8 8 8 12 24 12 8 8 8 8 8 8 8 8 8 8 8 8 8 8 8 20 20 12 20 24 32 32 32 36 32 32 36 36 36 36 36 36 36 32 20 20 20 20 12 12 12 20 24 32 24 12 12 76 92 68 20 8 24 44 36 32 24 24 32 32 20 8 12 24 36 44 48
48 36 24 20 48 80 80 88 76 48 20 12 12 12 12 8 12 20 20 20 20 12 12 12 36 56 48 32 24 20 0 0 8 24 88 24 0 0 0 0 0 0 0 0 0 0 0 8 8 8 8 24 24 12 8 24 20 20 32 32 32 32 24 32 32 32 36 36 36 32 20 20 20 12 12 12 12 20 32 24 20 8 8 76 80 56 36 20 24 36 36 32 24 24 32 24 20 12 20 24 36 48 56
36 32 24 24 24 24 24 64 68 56 32 20 20 20 8 12 20 24 20 20 20 20 12 20 56 80 64 44 24 12 0 0 8 24 56 32 12 0 0 0 0 0 0 0 0 0 0 0 0 0 0 24 20 8 8 8 12 20 32 32 32 32 32 32 32 36 36 44 36 24 24 20 20 12 12 12 12 20 32 32 20 8 12 76 68 36 24 20 24 44 44 36 32 32 32 24 20 12 20 24 32 44 56
44 44 36 36 32 32 24 64 64 44 20 20 12 8 8 12 20 24 24 24 20 20 20 32 48 76 88 48 24 12 8 8 8 24 64 88 48 0 0 0 0 0 0 0 0 0 0 0 0 0 0 0 0 0 0 8 20 24 32 36 36 32 32 36 36 36 48 48 36 32 32 24 20 12 12 12 20 24 32 32 20 12 24 80 92 76 32 20 24 44 48 44 36 32 32 32 24 20 20 24 36 44 48
56 48 48 48 44 36 32 44 44 32 12 8 8 8 8 24 44 44 32 32 32 24 20 20 24 36 64 36 36 36 32 12 8 20 68 88 48 8 0 0 0 0 0 0 0 0 0 0 0 0 0 0 0 0 0 0 20 32 36 36 36 36 36 36 32 36 48 44 36 32 32 24 24 20 20 24 36 44 44 32 20 12 32 80 92 76 44 32 24 36 48 44 36 36 36 32 24 20 20 32 36 44 48
68 64 68 56 48 44 36 32 32 24 12 12 12 12 20 32 56 68 48 48 48 36 32 32 24 24 32 32 36 56 76 20 8 20 44 80 68 32 0 0 0 0 0 0 0 0 0 0 0 0 0 0 0 0 0 8 20 32 44 44 44 44 44 32 32 36 48 36 36 36 36 32 32 24 24 44 36 36 68 48 24 32 80 92 92 80 64 36 32 44 48 48 44 36 36 32 32 24 32 36 36 36 48
68 80 80 64 56 48 44 36 36 32 24 32 32 32 44 32 44 68 76 64 64 64 56 44 36 32 24 20 44 68 80 24 8 12 20 68 88 68 20 8 0 0 0 0 0 0 0 8 8 8 8 12 12 8 8 8 20 24 44 44 36 36 32 32 36 44 48 36 36 36 36 32 32 24 24 36 32 24 48 44 32 36 88 92 88 68 48 32 32 48 56 44 44 36 44 44 36 36 36 36 32 32 44
48 68 76 68 56 44 44 44 44 44 44 48 48 44 44 24 24 36 64 64 64 64 68 64 48 36 24 24 48 76 88 44 20 12 12 48 76 76 48 20 12 8 8 8 8 8 8 12 12 12 12 24 20 12 12 12 12 20 36 32 36 32 24 24 36 44 44 44 36 36 36 32 32 24 24 32 24 20 24 44 36 32 48 88 88 68 44 32 36 44 56 48 44 44 44 44 44 44 44 44 32 24 36
56 68 76 68 56 44 44 56 64 64 64 64 48 36 24 20 20 24 64 64 64 56 64 80 76 56 32 36 64 88 80 68 44 24 12 36 56 68 68 32 20 12 12 12 12 12 12 12 20 20 20 32 24 20 20 20 20 20 24 32 32 24 32 32 32 36 44 44 44 36 36 36 32 32 24 24 24 24 24 44 36 32 32 64 76 64 36 32 36 48 56 48 44 36 36 44 48 48 48 44 32 24 24
80 76 80 76 68 64 64 80 88 88 80 76 64 48 44 32 36 48 68 68 64 56 64 88 92 80 44 56 76 92 88 80 56 32 12 20 36 56 68 32 12 12 12 20 20 20 20 20 20 20 20 36 32 24 20 24 24 24 24 32 32 32 32 36 32 32 36 44 44 44 44 36 36 32 32 24 32 32 24 24 32 32 32 36 36 32 20 20 36 48 56 48 36 36 36 48 56 56 56 44 32 20 24
48 64 80 80 76 76 80 92 88 88 92 92 88 80 80 56 64 76 80 80 68 64 56 88 92 92 80 64 76 92 92 80 68 48 12 12 12 24 36 24 12 12 12 20 20 20 12 20 20 20 20 32 32 24 24 32 32 24 24 32 32 36 32 32 32 36 36 44 44 44 44 44 36 36 36 32 32 32 24 20 20 24 32 24 32 32 12 20 36 44 48 44 36 36 44 56 64 64 56 48 36 24 24
24 48 64 76 80 80 88 80 80 88 92 88 88 88 68 64 64 68 92 92 80 76 68 88 92 92 80 68 76 88 92 76 68 56 20 12 12 12 12 12 12 12 20 20 20 20 12 20 20 20 20 24 24 24 24 36 36 32 32 32 32 32 32 32 36 44 44 44 44 44 36 36 44 44 36 44 44 32 24 24 20 20 24 56 48 32 12 24 36 44 44 36 36 36 36 56 64 56 48 44 36 32 24
20 32 48 56 64 68 68 56 64 80 80 76 88 88 68 76 76 80 100 92 92 88 88 92 92 92 88 76 76 80 92 76 68 68 64 48 36 24 20 24 20 8 12 12 12 12 20 20 20 20 20 20 24 24 32 36 36 36 44 44 44 36 36 44 44 48 44 44 44 36 36 36 36 36 44 56 56 44 32 24 24 20 12 76 56 20 12 24 36 44 44 36 44 44 36 56 56 48 44 44 44 32 24
20 24 24 44 44 44 44 36 36 44 44 76 80 80 80 88 92 92 92 92 92 92 92 92 92 92 92 80 80 80 92 76 68 76 80 88 68 56 56 44 24 8 12 12 20 20 20 20 20 20 20 24 24 24 36 36 44 48 56 48 48 48 44 44 48 48 48 44 36 36 36 36 36 36 48 48 56 48 32 24 24 24 24 76 68 36 20 24 36 44 48 44 36 44 56 64 64 56 36 44 44 36 24
24 32 20 24 32 36 36 36 32 24 24 76 88 80 88 92 92 92 92 92 92 88 80 80 88 92 92 92 88 80 92 92 80 76 76 80 80 80 76 44 24 12 20 20 24 20 24 24 20 20 24 24 32 32 44 44 48 56 56 48 48 48 44 36 36 36 36 36 32 32 32 32 36 44 48 48 48 44 32 24 24 24 20 76 68 32 20 36 44 44 44 36 36 36 44 56 64 48 32 44 48 44 36
20 24 24 20 32 36 24 36 32 24 20 48 68 80 92 92 88 80 80 88 92 92 88 68 76 88 92 92 88 80 92 92 88 76 68 68 76 76 68 48 32 20 12 24 24 24 24 24 24 24 32 32 32 36 44 44 44 44 48 48 44 44 44 32 24 24 24 24 32 32 32 36 36 36 36 36 44 36 32 32 32 32 32 80 64 24 20 32 44 48 48 48 44 36 36 56 56 44 32 36 44 44 36
8 24 56 24 48 76 48 24 24 36 24 44 56 68 92 92 88 88 88 92 92 92 92 80 88 92 92 92 92 92 88 92 88 76 68 64 64 64 64 64 44 24 20 12 20 24 24 24 24 24 32 32 32 36 32 44 44 36 36 36 36 32 32 24 20 20 24 32 36 36 36 44 44 36 32 36 32 32 24 32 32 36 48 64 48 32 20 24 36 56 56 48 36 36 44 56 64 48 24 36 44 48 36
0 8 20 8 32 68 92 76 48 32 24 32 36 48 56 88 88 80 92 92 92 92 92 92 92 92 92 92 88 88 92 92 92 88 76 64 56 48 56 56 48 44 32 32 24 20 24 20 24 32 32 32 32 32 32 36 36 32 32 32 24 24 24 24 20 20 20 32 32 36 36 36 36 44 44 32 32 32 32 32 36 36 32 32 32 24 24 44 56 64 56 44 32 32 32 56 64 56 36 44 56 56 48
0 0 0 0 0 32 92 92 92 68 8 20 36 44 32 36 56 76 76 88 92 92 92 92 92 92 92 80 80 80 76 80 88 88 80 76 68 64 56 56 56 48 44 44 24 12 24 20 24 32 24 32 36 32 24 24 32 32 32 32 24 24 24 24 24 24 20 24 36 36 36 36 44 36 36 32 32 32 36 32 32 48 92 44 32 32 36 36 48 64 56 44 32 24 32 56 56 48 36 32 48 64 48
0 0 0 0 0 8 44 80 68 32 8 8 24 44 32 32 44 48 32 20 32 64 88 92 92 92 92 88 80 80 80 76 76 88 88 80 76 64 44 44 44 48 64 48 48 44 32 24 24 32 32 32 32 32 32 32 32 32 32 32 32 32 32 24 24 24 24 32 36 36 44 36 36 36 36 32 32 32 44 32 32 32 36 32 36 44 44 44 48 56 48 32 24 24 44 56 64 56 32 32 48 56 48
0 0 0 0 0 0 0 24 64 68 0 0 8 12 24 20 20 24 12 8 32 64 48 76 92 92 92 92 68 56 92 92 92 92 92 88 80 80 68 44 44 44 48 48 44 36 32 24 24 36 32 36 36 32 32 32 32 32 32 32 32 32 32 32 32 32 32 32 36 36 32 44 48 44 36 36 36 36 32 32 32 32 24 36 36 48 68 48 44 44 48 24 12 20 32 56 64 64 44 44 56 64 68
0 0 0 0 0 0 0 0 0 8 20 0 0 0 12 12 20 20 20 24 56 80 64 80 88 92 92 92 64 36 64 88 92 92 92 88 88 88 76 64 48 44 44 44 32 24 24 24 24 32 32 36 36 36 44 36 36 32 36 36 36 32 36 36 36 36 44 36 44 36 24 36 44 36 36 44 44 36 44 44 44 44 24 32 44 48 56 44 36 44 44 32 20 20 44 56 64 56 44 20 36 64 64
0 0 0 0 0 0 0 0 0 0 8 0 0 0 8 8 8 8 12 24 36 48 56 56 64 76 76 76 56 44 80 92 92 92 92 92 92 92 80 76 64 44 32 24 20 20 20 20 20 24 32 36 32 32 44 36 32 36 36 36 36 36 36 44 44 44 44 44 44 44 36 44 36 36 36 48 56 56 44 44 44 44 24 32 36 48 48 44 36 44 48 32 20 20 48 56 64 56 32 12 24 48 64
0 0 0 0 0 0 0 0 0 0 0 0 0 0 0 0 0 8 8 12 20 24 20 48 68 76 76 68 56 56 92 92 92 92 92 92 92 92 92 88 76 56 44 32 24 20 20 20 20 20 20 20 24 32 36 32 32 32 36 36 36 36 36 44 44 44 44 44 44 44 44 44 44 44 56 48 44 44 48 44 36 36 36 36 36 44 48 44 36 36 24 24 12 20 36 44 44 32 24 12 24 48 64
0 0 0 0 0 0 0 0 0 0 0 0 0 0 0 0 0 0 0 0 12 32 44 76 88 88 80 80 80 88 92 92 92 92 92 92 92 92 92 92 88 68 56 44 36 32 24 20 20 20 32 32 32 32 32 32 36 36 32 36 44 44 44 44 44 44 36 48 48 48 48 56 56 56 68 56 48 48 48 56 48 44 56 44 44 44 48 48 44 36 32 24 24 24 44 36 32 20 20 12 32 48 64
0 0 0 0 0 0 0 0 0 0 0 0 0 0 0 0 0 0 0 0 0 12 64 80 88 92 92 92 92 92 92 92 92 92 92 92 92 88 80 92 92 76 56 56 48 36 36 32 32 32 36 44 44 44 36 36 44 44 36 44 44 44 44 44 44 44 44 56 64 56 64 64 64 64 64 56 56 56 56 56 48 44 36 36 36 44 44 48 48 48 32 32 32 32 44 32 32 24 20 12 20 36 64
0 0 0 0 0 0 0 0 0 0 0 0 0 0 0 0 0 0 0 24 20 8 36 56 76 88 88 92 92 92 92 92 92 92 92 92 92 92 80 92 92 92 76 64 64 56 48 44 44 44 48 56 48 48 48 44 48 56 48 48 48 48 48 44 44 44 44 64 64 68 76 76 68 56 56 56 64 68 68 64 56 48 44 44 44 44 48 48 48 44 32 24 32 32 44 32 24 24 20 20 36 56 76
0 0 0 0 0 0 0 0 0 0 0 0 0 0 0 0 0 0 0 24 20 8 0 36 64 76 92 92 92 88 88 88 88 88 92 92 92 92 88 88 92 92 88 76 68 64 64 56 56 56 48 56 56 56 56 56 56 56 56 56 48 48 48 44 44 44 48 56 64 68 76 68 64 56 56 56 64 64 68 68 68 64 56 48 44 44 56 48 44 32 36 32 32 36 44 32 24 20 12 20 44 76 80
0 0 0 0 0 0 0 0 0 0 0 0 0 0 0 0 0 0 0 0 0 8 12 32 64 92 92 92 88 80 76 76 80 88 88 92 92 92 92 88 88 88 76 76 64 48 56 56 56 48 44 44 48 56 56 64 64 56 56 56 56 48 44 44 44 48 48 64 64 68 68 64 64 64 48 48 56 64 68 68 68 68 68 56 48 48 48 48 36 32 48 32 36 44 44 36 32 24 12 36 64 76 80
0 0 0 0 0 0 0 0 0 0 0 0 0 0 0 0 0 0 0 0 0 12 24 20 48 92 92 92 92 88 80 76 76 80 88 88 88 88 88 92 92 88 68 64 48 36 32 36 44 36 32 36 44 48 56 64 64 48 56 56 56 48 44 44 44 44 48 56 64 68 68 56 56 56 48 48 56 64 68 68 64 64 64 64 64 56 48 36 32 32 36 32 36 44 48 36 36 32 20 56 76 80 76
0 0 0 0 0 0 0 0 0 0 0 0 0 0 0 0 0 0 0 0 0 0 8 20 56 80 56 76 88 92 92 76 68 68 88 88 88 88 80 92 92 80 68 64 56 48 24 24 32 36 32 36 44 44 56 68 64 48 56 56 48 44 36 36 36 44 48 56 64 68 68 64 56 56 48 44 48 64 68 68 64 64 56 64 56 56 48 44 44 36 36 44 44 44 48 48 44 36 32 56 76 76 56
0 0 0 0 0 0 0 0 0 0 0 0 0 0 0 0 0 0 0 0 0 0 0 0 44 68 20 64 88 92 92 88 80 80 92 88 92 92 92 92 80 64 56 68 68 56 44 32 32 32 20 32 44 48 56 64 56 48 56 56 44 36 24 44 48 56 56 64 68 68 68 68 64 56 56 48 56 68 76 76 68 64 56 64 64 56 48 48 48 44 36 48 48 44 48 56 56 48 48 64 76 68 56
0 0 0 0 0 0 0 0 0 0 0 0 0 0 0 0 0 0 0 0 0 0 0 0 36 80 64 88 92 92 92 92 92 88 80 76 80 92 92 92 80 64 48 76 80 80 56 48 36 24 12 32 36 48 56 56 56 48 44 44 44 44 56 68 76 76 68 76 76 76 76 68 68 68 64 64 68 68 76 76 68 64 64 68 68 56 56 48 48 48 44 56 48 44 48 64 56 56 56 64 68 64 56
0 0 0 0 0 0 0 0 0 0 0 0 0 0 0 0 0 0 0 0 0 0 0 0 44 88 92 92 92 92 92 92 92 88 80 48 44 56 92 92 80 64 56 68 76 76 68 56 36 20 20 24 36 44 48 56 56 44 36 32 44 76 88 88 88 88 80 76 76 76 76 76 76 76 76 68 76 80 80 80 76 68 76 76 68 64 56 48 48 48 44 56 56 56 48 48 48 48 48 64 68 68 64
0 0 0 0 0 0 0 0 0 0 0 0 0 0 0 0 0 0 0 0 0 0 0 0 44 88 64 88 92 92 92 76 64 68 92 68 44 36 64 88 80 64 56 56 64 68 68 48 36 24 20 20 32 44 48 56 56 48 36 36 56 80 88 92 92 88 88 76 76 76 76 80 80 76 76 80 88 88 88 80 76 68 68 68 64 56 48 48 48 48 48 48 56 56 48 36 44 48 56 64 76 76 68
0 0 0 0 0 0 0 0 0 0 0 0 0 0 0 0 0 0 0 0 0 0 0 0 12 44 76 88 92 92 92 80 76 76 92 88 68 56 56 88 92 88 80 76 80 88 76 68 56 36 20 20 32 44 56 64 56 48 44 48 56 64 88 88 92 92 80 76 76 76 80 80 80 80 76 80 88 92 88 80 76 76 76 68 64 56 44 44 44 44 44 44 48 56 44 36 44 48 48 68 76 76 76
0 0 0 0 0 0 0 0 0 0 0 0 0 0 0 0 0 0 0 0 0 0 0 0 0 20 92 92 76 68 92 92 92 92 92 92 88 80 76 80 88 88 92 92 92 92 92 80 68 48 32 20 24 44 64 64 64 56 48 56 44 44 68 80 92 88 80 76 76 76 80 80 80 76 76 76 80 80 76 68 68 76 68 64 56 48 44 44 44 48 64 48 48 64 48 48 48 48 48 68 76 76 68
0 0 0 0 0 0 0 0 0 0 0 0 0 0 0 0 0 0 0 0 0 0 0 0 0 12 56 88 88 80 92 92 76 64 76 88 92 92 88 92 92 92 92 92 92 92 92 88 76 56 36 24 24 44 56 64 68 76 88 68 76 76 56 80 92 92 88 80 76 76 80 76 76 76 76 76 76 80 80 68 68 64 56 48 44 36 32 36 44 44 64 48 48 48 48 44 44 48 64 76 80 80 76
0 0 0 0 0 0 0 0 0 0 0 0 0 0 0 0 0 0 0 0 0 0 0 0 0 20 80 88 92 80 48 80 88 88 88 92 92 92 92 92 92 92 92 92 92 92 92 92 80 68 48 36 24 32 64 64 68 88 92 92 92 92 88 88 92 92 92 76 76 76 80 80 80 80 80 80 80 80 88 76 64 64 56 44 36 36 32 36 44 44 48 48 48 56 48 68 68 68 64 76 88 88 80
0 0 0 0 0 0 0 0 0 0 0 0 0 0 0 0 0 0 0 0 0 0 0 0 0 20 92 92 92 76 12 76 92 92 92 92 92 92 92 92 92 92 92 92 92 92 92 92 92 88 64 48 24 20 64 76 80 88 92 92 92 92 92 92 92 92 88 88 80 80 80 88 88 88 88 88 88 80 80 76 68 56 56 48 36 36 44 44 44 44 48 48 56 64 80 80 80 76 68 76 80 88 56
0 0 0 0 0 0 0 0 0 0 0 0 0 0 0 0 0 0 0 0 0 0 0 0 36 76 92 92 92 76 12 76 56 36 92 92 92 92 92 76 80 92 92 92 92 92 92 92 92 88 68 64 44 44 80 68 64 68 88 92 92 92 92 92 92 88 88 80 80 80 76 88 92 92 92 88 88 88 80 76 64 56 48 44 44 36 44 44 44 44 56 56 68 80 88 80 76 68 68 80 88 92 88
0 0 0 0 0 0 0 0 0 0 0 0 0 0 0 0 0 0 0 0 0 0 0 0 44 92 92 68 36 12 0 56 80 68 20 36 36 48 92 92 92 92 92 92 92 92 92 92 76 56 64 76 76 76 80 64 48 44 64 80 92 92 92 92 92 92 80 80 80 80 80 88 92 92 92 92 92 88 80 68 68 64 48 44 36 36 36 48 48 48 64 76 80 88 88 80 80 80 80 88 92 92 92
0 0 0 0 0 0 0 0 0 0 0 0 0 0 0 0 0 0 0 0 0 0 0 8 20 48 92 92 88 76 36 12 48 68 0 32 32 36 92 92 92 92 92 92 92 92 92 92 80 56 32 44 56 56 56 44 36 32 36 68 80 92 92 92 92 88 76 80 80 80 88 88 92 92 92 92 92 88 80 68 68 76 68 44 36 44 56 64 64 64 80 80 88 80 80 80 80 80 80 88 92 92 92
0 0 0 0 0 0 0 0 0 0 0 0 0 0 0 0 0 0 0 0 0 0 0 36 48 56 92 92 92 92 92 92 64 24 0 8 48 92 92 44 12 8 24 76 92 92 92 56 68 76 24 12 32 56 44 32 32 36 48 56 68 80 88 92 92 92 92 88 88 88 92 92 92 92 92 92 92 92 92 68 68 76 64 48 44 48 68 68 68 68 80 88 88 80 80 88 88 80 88 76 76 76 88
0 0 0 0 0 0 0 0 0 0 0 0 0 0 0 0 0 0 0 0 0 0 0 12 56 88 56 88 92 92 92 92 92 68 0 0 20 44 48 80 92 92 92 92 92 88 76 48 68 88 56 32 44 64 48 20 12 24 44 56 76 80 68 80 76 76 80 80 88 88 92 92 92 92 92 92 92 92 92 68 64 64 56 48 48 48 68 76 68 68 88 88 88 80 76 80 80 80 76 68 68 76 80
0 0 0 0 0 0 0 0 0 0 0 0 0 0 0 0 0 0 0 0 0 0 0 0 24 56 88 88 92 92 92 92 92 76 24 24 36 64 92 24 44 88 88 68 76 88 92 92 92 92 92 80 64 56 48 24 12 12 32 32 56 76 76 68 76 88 88 88 88 88 92 92 92 92 92 92 92 92 92 76 76 76 64 56 48 56 80 80 88 88 88 88 88 80 64 68 76 76 76 68 64 68 80
0 0 0 0 0 0 0 0 0 0 0 0 0 0 0 0 0 0 0 0 0 0 0 0 24 44 44 48 76 92 92 88 92 88 56 56 68 80 92 44 12 0 0 0 0 24 92 92 92 92 92 76 56 44 24 20 12 8 0 12 12 32 80 68 64 76 88 92 92 92 92 92 92 92 92 92 92 92 92 88 88 88 88 68 64 68 88 88 88 88 88 88 80 68 44 48 64 68 64 56 56 56 68
0 0 0 0 0 0 0 0 0 0 0 0 0 0 0 0 0 0 0 0 12 24 12 12 36 64 56 64 80 92 92 68 76 88 92 68 80 92 92 68 32 8 0 0 0 24 92 92 92 92 88 68 64 56 36 36 24 12 8 8 8 20 64 68 68 76 92 92 92 92 92 92 92 92 92 92 92 92 92 92 92 88 88 68 64 68 92 92 92 92 92 80 76 64 48 44 44 48 56 56 48 48 56
0 0 0 0 0 0 0 0 0 0 0 0 0 0 0 0 0 0 0 0 24 56 76 76 88 88 64 88 92 92 92 92 76 68 92 92 92 92 92 92 80 56 20 8 32 64 88 92 92 88 76 88 88 76 56 48 44 32 12 8 8 0 0 32 48 64 88 92 92 92 92 92 92 92 92 92 92 92 92 92 92 88 88 76 76 80 92 92 92 92 92 80 76 64 48 44 36 36 44 44 48 48 48
0 0 0 0 0 0 0 0 0 0 0 0 0 0 0 0 0 0 0 0 0 8 44 32 64 92 88 92 92 92 92 92 80 76 92 92 92 92 92 92 92 92 92 56 68 92 76 92 92 92 92 88 56 36 48 36 32 24 12 8 0 0 0 8 0 20 76 88 92 92 88 92 92 92 92 92 92 92 92 92 92 88 88 88 88 88 92 92 92 92 92 76 68 64 56 44 36 32 32 36 44 48 64
0 0 0 0 0 0 0 0 0 0 0 0 0 0 0 0 0 0 0 0 0 0 12 24 56 76 64 88 92 92 92 92 64 36 76 88 92 88 80 92 92 92 92 80 88 92 92 92 92 92 92 92 80 48 20 20 20 20 20 12 8 0 0 0 8 24 48 80 88 92 88 88 88 92 92 92 92 92 92 92 92 92 92 92 92 92 92 92 92 92 92 80 68 56 48 44 44 36 36 44 44 48 64